Tracking 17142 objects as of 29-May-2015
HD Live streaming from Space Station

COSMOS 482 DESCENT CRAFT

Track COSMOS 482 DESCENT CRAFT now!
10-day predictions
COSMOS 482 DESCENT CRAFT is classified as:


NORAD ID: 6073
Int'l Code: 1972-023E
Perigee: 211.2 km
Apogee: 2,953.0 km
Inclination: 52.1 °
Period: 117.6 minutes
Semi major axis: 7953 km
RCS: 0.7153 m2 (medium)
Launch date: March 31, 1972
Source: Commonwealth of Independent States (former USSR) (CIS)
Your satellite tracking list
Your tracking list is empty





NASA's NSSDC Master Catalog

Two Line Element Set (TLE):
1 06073U 72023E   15148.54927105  .00024898  53016-5  13568-3 0  9999
2 06073 052.0674 269.8175 1723779 052.4614 024.2129 12.24049302267550

Source of the keplerian elements: AFSPC

N2YO: 329